COSMOS 1275 DEB, 42167

Orbit data source: Space-Track

COSMOS 1275 DEB, 42167 is space debris in LEO originally from a launch on Thu, 04 Jun 1981 UTC launched from the Plesetsk Missile And Space Complex (PKMTR). Debris objects in space refer to the collection of defunct objects orbiting the Earth. Examples of debris include non-operational satellites, rocket bodies, and fragments generated from explosions, collisions, or faulty payload assembly.

Loading next visibility...
Identifier
42167, 1981-053SF
Orbit
LEO
Country
Flag of CISCIS
Related business
Manufacturer
Unknown
Mission
Spacecraft
Bus & Motor
Unknown
Mass
Unknown
Launch date (UTC)
1981-06-04 (44 years ago)
Launch vehicle
Unknown
Launch site
Plesetsk Missile And Space Complex (PKMTR)
Object type
Payload
Rocket body
Debris
Shape & HBR
Unknown shape, 0.1 m
Radar Cross Section
Small (<0.1 m²)

Expand to show TLE details & history
Last TLE update: 12 hours ago

TLE from 12 hours ago
0 COSMOS 1275 DEB
1 42167U 81053SF  25286.59198345  .00000984  00000-0  86608-3 0  9996
2 42167  82.8387 231.8334 0055361 166.3045 193.9633 13.83728227599388
Epoch: 2025-10-13T14:12Z
TLE epoch observation values (Epoch: 2025-10-13T14:12:27.370Z)
Latitude
-0.00005°
Longitude
-3.6732°
Altitude
992.997 km
Speed
7.335 km/s
True Right ascension
15h 27m 20s
True Declination
0° 00' 00"
Sunlit
Object was in daylight at epoch
Visualization orbit readout
Latitude
Unknown
Longitude
Unknown
Altitude
Unknown
Speed
Unknown
Apparent Right ascension
Unknown
Apparent Declination
Unknown
Sunlit
N/A
Visualization observer readout
Local Sidereal Time
21:08:51
Azimuth
Unknown
Elevation
Unknown
Doppler factor
Unknown
Orbital elements
Apogee altitude
988.391 km
Perigee altitude
907.276 km
Semi-major axis
7,325.97 km
Eccentricity
0.00554
Inclination
82.8387°
RAAN
231.8334°
Arg. of periapsis
166.3045°
True anomaly
193.81124°
Mean anomaly
193.9633°
Eccentric anomaly
193.88717°
Mean motion
3.46135 °/min
Orbital period
104.01 mins
BSTAR
0.00086608
Loading maneuver chart data...
Computing Atmospheric mass density...
Loading historical data...
Loading historical data...
Loading historical data...
Loading historical data...
Loading historical data...
Loading historical data...
Loading historical data...

Documentation

Showing up to 5 results
|